Tracking 18816 objects as of 17-October-2017
HD Live streaming from Space Station
objects crossing your sky now

DMSP 5D-2 F11 DEB

Track DMSP 5D-2 F11 DEB now!
10-day predictions


NORAD ID: 29070
Int'l Code: 1991-082BR
Perigee: 781.7 km
Apogee: 803.1 km
Inclination: 98.8 °
Period: 100.6 minutes
Semi major axis: 7163 km
RCS: 0.0089 m2 (small)
Launch date: November 28, 1991
Source: United States (US)
Launch site: AIR FORCE WESTERN TEST RANGE (AFWTR)

Note: This is SATELLITE DEBRIS
aabbcc
Your satellite tracking list
Your tracking list is empty





NASA's NSSDC Master Catalog

Two Line Element Set (TLE):
1 29070U 91082BR  17289.53470146  .00001368  00000-0  52675-3 0  9991
2 29070  98.7754 311.8439 0014980 155.1311 205.0596 14.31942874683050
Source of the keplerian elements: AFSPC